Location: *
(38.2141°S, 156.4486°W)
Time: 17:54:25
(UTC+00:00)

Daily predictions for brighter satellites

Satellite Brightness Start Highest point End
(mag) Time Altitude Azimuth Time Altitude Azimuth Time Altitude Azimuth
COSMOS 2428 3.4 12:02:35 10° SSW 12:08:11 51° ESE 12:13:14 12° NE
Cosmos 2333 Rocket 2.5 12:03:40 10° SW 12:09:07 47° WNW 12:09:10 47° WNW
SL-24 R/B - RUBIN 2 4.2 12:09:52 53° N 12:10:57 65° ENE 12:16:03 10° SE
Cosmos 2112 Rocket 3.9 12:11:04 10° SSW 12:16:28 75° WNW 12:17:43 53° N
Cosmos 1864 Rocket 4.5 12:12:21 10° S 12:18:46 84° W 12:21:22 39° N
Cosmos 2237 Rocket 4.3 12:17:17 10° S 12:22:05 26° ESE 12:26:50 10° ENE
CZ-2D R/B 3.2 12:22:50 30° W 12:22:50 30° W 12:27:30 10° SW
Cosmos 2061 Rocket 4.0 12:19:47 10° S 12:26:05 82° E 12:29:29 29° NNE
Cosmos 1242 Rocket 3.7 12:28:13 10° SSW 12:30:09 29° SW 12:30:09 29° SW
Okean 1 Rocket 3.8 12:31:24 38° W 12:31:38 38° WSW 12:35:51 10° S
IDEFIX/ARIANE 42P 4.1 12:35:57 20° W 12:35:57 20° W 12:39:27 10° SW
USA 32 4.1 12:33:33 37° N 12:35:42 79° E 12:41:01 10° S
CZ-2C R/B 3.2 12:34:01 32° N 12:36:51 81° WNW 12:42:47 10° SSW
Cosmos 2322 3.6 12:32:00 10° SSW 12:37:45 72° WNW 12:40:45 29° N
ADEOS II 2.9 12:39:03 31° WNW 12:39:17 32° W 12:43:59 10° SW
Cosmos 1892 Rocket 3.6 12:35:06 10° S 12:39:37 78° E 12:41:24 36° NNE
Cosmos 2016 Rocket 4.2 12:35:41 10° SSW 12:41:58 57° W 12:44:34 34° NNW
Cosmos 1125 Rocket 3.8 12:44:28 31° N 12:46:56 62° ENE 12:52:10 10° SSE
Cosmos 2227 Rocket 3.2 12:43:38 20° NNE 12:47:00 40° ENE 12:52:18 10° SE
Cosmos 2360 Rocket 4.0 12:49:27 10° WSW 12:51:36 14° W 12:51:36 14° W
Cosmos 2219 Rocket 2.9 12:47:47 10° SW 12:52:45 33° WNW 12:53:31 31° WNW
IRIDIUM 104 4.4 12:47:53 10° S 12:53:07 61° W 12:55:16 34° NNW
Cosmos 1346 Rocket 4.0 12:53:28 26° W 12:53:38 26° WSW 12:57:01 10° SSW
Meteor 2-15 4.5 12:47:35 10° SSW 12:53:41 64° W 12:57:02 27° NNW
Cosmos 921 Rocket 4.3 12:51:35 10° SW 12:54:19 23° W 12:54:19 23° W
Cosmos 2233 Rocket 4.0 12:51:50 10° SSW 12:58:08 66° W 13:02:01 24° NNW
Envisat 3.4 12:53:06 10° NNE 12:58:08 64° ESE 13:03:14 10° S
ALOS 2.6 12:57:48 37° NW 12:59:04 47° W 13:03:37 10° SSW
YAOGAN 6 4.0 12:56:42 10° NE 12:59:46 34° ESE 13:02:55 10° S
Meteor 2-8 Rocket 4.4 12:54:42 10° SSW 13:00:49 73° W 13:05:04 21° N
Cosmos 494 Rocket 3.9 12:56:37 10° SSW 13:01:51 81° WNW 13:06:22 14° NNE
Tiangong -0.4 13:05:14 20° NE 13:05:14 20° NE 13:06:27 10° NE
MOZ.5/SAFIR/RUBIN 5/SL-8 3.9 13:03:16 10° S 13:07:54 57° WSW 13:09:56 31° NW
Cosmos 1174 4.4 13:05:36 29° NNW 13:08:33 85° ENE 13:13:11 10° SSE
Cosmos 1455 Rocket 3.8 13:09:11 30° WNW 13:10:25 36° WSW 13:14:29 10° S
USA 276 2.9 13:13:17 30° WSW 13:14:17 42° SSW 13:17:15 10° SE
SL-16 R/B 3.7 13:10:07 10° SSE 13:15:52 38° E 13:21:34 10° NNE
ATLAS 5 CENTAUR R/B 1.7 13:10:40 10° SW 13:16:02 63° WNW 13:20:16 10° NNE
Meteor 1-28 Rocket 4.4 13:15:50 10° SSE 13:19:15 36° E 13:22:22 12° NNE
ISS -0.8 13:18:04 10° SSW 13:20:44 21° SSE 13:23:22 10° ESE
H-2A R/B 4.0 13:10:35 10° W 13:21:40 21° NW 13:22:13 20° NW
USA 308 2.3 13:20:53 10° SW 13:23:37 66° SE 13:26:47 10° NE
USA 215 3.5 13:17:52 10° NNE 13:24:02 43° NW 13:30:17 10° WSW
Cosmos 1464 Rocket 4.4 13:18:02 10° S 13:24:12 62° E 13:30:15 10° NNE
COBE Rocket 3.9 13:22:05 20° N 13:25:12 53° W 13:29:51 10° SSW
Thor Agena Rocket 4.3 13:25:38 22° NW 13:27:58 32° W 13:32:40 10° SW
Okean 1-7 Rocket 4.2 13:24:04 10° S 13:28:35 59° E 13:32:59 10° NNE
CZ-2C R/B 2.6 13:26:53 12° N 13:31:28 57° W 13:36:24 10° SSW
Cosmos 2297 Rocket 2.8 13:30:36 20° NW 13:34:12 43° WSW 13:39:38 10° S
Cosmos 2150 Rocket 4.1 13:32:47 18° NNW 13:36:54 74° WSW 13:42:21 10° SSE
CZ-2C R/B 2.4 13:38:43 12° NNE 13:38:43 12° NNE 13:39:00 10° NNE
Cosmos 1607 3.9 13:35:57 17° NNW 13:40:54 86° WSW 13:47:06 10° SSE
Cosmos 1980 3.7 13:36:27 10° SSW 13:42:06 66° WNW 13:47:41 10° N
Cosmos 2219 3.3 13:41:45 12° NNW 13:47:07 81° ENE 13:52:56 10° SSE
Cosmos 1544 Rocket 4.3 13:45:54 17° NW 13:48:40 35° WSW 13:52:45 10° S
NOSS 0 Rocket 4.4 13:44:10 10° SW 13:49:52 38° WNW 13:55:33 10° N
UNK 4.4 13:45:42 10° SSE 13:50:17 55° E 13:54:46 10° N
SEDSat Delta rocket 4.1 13:47:36 17° NW 13:50:18 31° NNE 13:54:34 10° ENE
COSMOS 2428 4.0 13:47:52 10° SW 13:51:57 20° W 13:55:06 13° NW
Cosmos 1602 Rocket 3.6 13:48:14 10° S 13:52:48 87° W 13:57:17 10° N
Cosmos 1461 4.0 13:51:05 10° WSW 13:54:37 25° WNW 13:58:12 10° NNW
IRS-1D 4.5 13:51:23 12° NNW 13:55:32 30° W 14:00:14 10° SW
Cosmos 2034 Rocket 4.2 13:51:39 10° S 13:58:06 79° E 14:04:31 10° N
Cosmos 1626 Rocket 4.1 13:54:45 10° SSW 13:59:00 41° W 14:03:10 10° NNW
BREEZE-M DEB (TANK) 3.6 13:56:54 11° W 13:59:08 23° NNW 14:03:53 10° NNE
Cosmos 2082 4.2 13:53:44 10° N 13:59:22 63° ENE 14:05:04 10° SSE
Cosmos 2058 3.6 13:55:46 10° SSW 13:59:31 34° W 14:03:16 10° NNW
Cosmos 1809 Rocket 4.5 13:54:44 10° NNW 14:00:49 68° W 14:06:58 10° S
Cosmos 2237 Rocket 2.6 14:00:53 10° SW 14:06:17 43° WNW 14:11:38 10° N
Tsikada Rocket 4.2 14:04:25 10° N 14:10:46 83° E 14:17:17 10° S
Cosmos 2228 3.8 14:08:57 10° NW 14:12:47 33° WSW 14:16:40 10° SSW
Cosmos 2263 Rocket 2.4 14:09:54 10° NNW 14:15:35 75° ENE 14:21:20 10° SSE
BREEZE-M DEB (TANK) 2.6 14:14:57 10° NNW 14:16:57 36° NE 14:20:28 10° ESE
Cosmos 1238 Rocket 3.7 14:12:09 10° N 14:17:29 81° W 14:23:31 10° S
H-2A R/B 2.5 14:12:17 10° NNE 14:17:33 71° ESE 14:23:01 10° S
Cosmos 1862 4.4 14:14:00 10° S 14:17:50 47° E 14:21:35 10° NNE
USA 281 3.4 14:14:19 10° N 14:20:43 54° WNW 14:27:12 10° SSW
